GW0110 Weather Reports


time (UTC)temp
C
wind
direction
speed
KPH
gust
KPH
rain 1hr
cm
rain 24hr
cm
rain mn
cm
humidity
%
barometer
mb
20260504183013 17 306 4.8 24.1 0.00 0.00 0.00 34 1007.9
20260504181508 16 279 6.4 19.3 0.00 0.00 0.00 35 1008.2
20260504180004 15 221 4.8 16.1 0.00 0.00 0.00 37 1008.1
20260504174602 15 32 8.0 16.1 0.00 0.00 0.00 38 1008.4
20260504173027 13 20 1.6 6.4 0.00 0.00 0.00 42 1008.7
20260504171534 12 228 0.0 4.8 0.00 0.00 0.00 46 1008.8
20260504160126 12 330 1.6 22.5 0.00 0.00 0.00 41 1008.8
20260504081511 4 110 0.0 4.8 0.00 0.03 0.00 59 1010.5
20260504050011 0 113 0.0 0.0 0.00 0.03 0.00 63 1010.3
20260504044518 0 101 0.0 0.0 0.00 0.03 0.00 63 1010.6
20260504043009 -1 80 0.0 0.0 0.00 0.03 0.00 65 1010.5
20260504041539 -1 95 0.0 0.0 0.00 0.03 0.00 66 1010.6
20260504040037 -1 95 0.0 0.0 0.00 0.03 0.00 66 1010.5
20260504034534 -1 95 0.0 0.0 0.00 0.03 0.00 66 1010.4
20260504033037 -1 95 0.0 0.0 0.00 0.03 0.00 66 1010.4
20260504031535 -1 95 0.0 0.0 0.00 0.05 0.00 66 1010.5
20260504030033 -1 95 0.0 1.6 0.00 0.05 0.00 66 1010.4
20260504024628 -1 95 0.0 1.6 0.00 0.05 0.00 66 1010.5
20260504023056 0 95 0.0 1.6 0.00 0.05 0.00 67 1010.5
20260504021555 0 90 0.0 0.0 0.00 0.05 0.00 65 1010.6
20260504020050 0 90 0.0 0.0 0.00 0.05 0.00 65 1010.6
20260504014548 0 90 0.0 0.0 0.00 0.05 0.00 64 1010.6
20260504013052 0 20 0.0 1.6 0.00 0.05 0.00 63 1010.4
20260504011543 1 306 0.0 0.0 0.00 0.10 0.05 63 1010.4
20260504010041 1 306 0.0 0.0 0.00 0.10 0.05 60 1010.3
20260504004536 2 306 0.0 0.0 0.00 0.10 0.05 58 1010.1
20260504003037 3 306 0.0 0.0 0.00 0.10 0.05 49 1010.1
20260504001539 5 306 0.0 3.2 0.00 0.43 0.05 44 1009.9
20260504000034 6 283 1.6 11.3 0.00 0.43 0.05 42 1009.8
20260503234532 6 300 4.8 16.1 0.00 0.43 0.05 38 1009.6
20260503233031 7 309 1.6 16.1 0.00 0.43 0.05 37 1009.6
20260503231531 7 345 3.2 16.1 0.00 0.43 0.05 38 1009.6
20260503230028 7 302 1.6 17.7 0.00 0.43 0.05 38 1009.4
20260503224527 7 288 3.2 17.7 0.00 0.43 0.05 37 1009.3
20260503223027 7 267 3.2 17.7 0.00 0.43 0.05 37 1009.4
20260503221525 7 312 4.8 17.7 0.00 0.43 0.05 36 1009.2
20260503220107 7 70 8.0 24.1 0.00 0.43 0.05 35 1009.1
20260503214556 7 283 6.4 14.5 0.00 0.43 0.05 37 1009.1
20260503213053 7 12 4.8 19.3 0.00 0.43 0.05 39 1009.3
20260503211552 7 297 4.8 25.7 0.00 0.43 0.05 37 1009.2
20260503210051 7 290 9.7 25.7 0.00 0.43 0.05 37 1009.1
20260503204550 7 309 3.2 17.7 0.00 0.43 0.05 39 1009.0
20260503203053 7 291 6.4 19.3 0.00 0.43 0.05 38 1009.0
20260503201547 7 288 4.8 20.9 0.00 0.43 0.05 38 1008.8
20260503200046 7 289 3.2 16.1 0.00 0.43 0.05 38 1008.8
20260503194645 7 282 4.8 16.1 0.00 0.43 0.05 39 1008.9
20260503193045 7 292 9.7 20.9 0.00 0.43 0.05 36 1009.0
20260503191642 7 276 11.3 19.3 0.00 0.53 0.05 38 1009.0
20260503190044 6 296 8.0 20.9 0.00 0.53 0.05 39 1009.0
20260503184542 7 15 6.4 17.7 0.00 0.53 0.05 37 1009.0